Time,TemperatureF,DewpointF,PressureIn,WindDirection,WindDirectionDegrees,WindSpeedMPH,WindSpeedGustMPH,Humidity,HourlyPrecipIn,Conditions,Clouds,dailyrainin,SoftwareType,DateUTC
2013-04-03 00:03:00,64.0,62.0,30.10,ENE,78,0.0,0.0,93,0.00,,,0.00,,2013-04-03 04:03:00,
2013-04-03 00:13:00,64.0,62.0,30.10,ENE,78,0.0,0.0,93,0.00,,,0.00,,2013-04-03 04:13:00,
2013-04-03 00:23:00,65.0,63.0,30.10,ENE,78,0.0,0.0,93,0.00,,,0.00,,2013-04-03 04:23:00,
2013-04-03 00:33:00,64.0,62.0,30.10,ENE,77,0.0,0.0,93,0.00,,,0.00,,2013-04-03 04:33:00,
2013-04-03 00:43:00,64.0,62.0,30.10,ENE,77,0.0,0.0,93,0.00,,,0.00,,2013-04-03 04:43:00,
2013-04-03 00:53:00,65.0,63.0,30.10,ENE,77,0.0,0.0,93,0.00,,,0.00,,2013-04-03 04:53:00,
2013-04-03 01:03:00,64.0,62.0,30.10,ENE,77,0.0,0.0,93,0.00,,,0.00,,2013-04-03 05:03:00,
2013-04-03 01:12:00,64.0,62.0,30.10,ENE,77,0.0,0.0,93,0.00,,,0.00,,2013-04-03 05:12:00,
2013-04-03 01:22:00,64.0,62.0,30.09,ENE,77,0.0,0.0,93,0.00,,,0.00,,2013-04-03 05:22:00,
2013-04-03 01:32:00,64.0,62.0,30.09,ENE,77,0.0,0.0,93,0.00,,,0.00,,2013-04-03 05:32:00,
2013-04-03 01:42:00,64.0,62.0,30.09,ENE,77,0.0,0.0,93,0.00,,,0.00,,2013-04-03 05:42:00,
2013-04-03 01:53:00,63.0,61.0,30.09,ENE,78,0.0,0.0,93,0.00,,,0.00,,2013-04-03 05:53:00,
2013-04-03 02:02:00,63.0,62.0,30.08,ENE,78,0.0,0.0,95,0.00,,,0.00,,2013-04-03 06:02:00,
2013-04-03 02:12:00,63.0,62.0,30.08,ENE,78,0.0,0.0,95,0.00,,,0.00,,2013-04-03 06:12:00,
2013-04-03 02:22:00,63.0,62.0,30.07,ENE,77,0.0,0.0,95,0.00,,,0.00,,2013-04-03 06:22:00,
2013-04-03 02:32:00,63.0,62.0,30.06,ENE,77,0.0,0.0,95,0.00,,,0.00,,2013-04-03 06:32:00,
2013-04-03 02:42:00,63.0,62.0,30.06,ENE,77,0.0,0.0,95,0.00,,,0.00,,2013-04-03 06:42:00,
2013-04-03 02:52:00,63.0,62.0,30.05,ENE,78,0.0,0.0,95,0.00,,,0.00,,2013-04-03 06:52:00,
2013-04-03 03:02:00,63.0,62.0,30.05,ENE,78,0.0,0.0,95,0.00,,,0.00,,2013-04-03 07:02:00,
2013-04-03 03:12:00,63.0,62.0,30.05,ENE,78,0.0,0.0,95,0.00,,,0.00,,2013-04-03 07:12:00,
2013-04-03 03:23:00,63.0,62.0,30.04,ENE,77,0.0,0.0,95,0.00,,,0.00,,2013-04-03 07:23:00,
2013-04-03 03:33:00,62.0,61.0,30.03,ENE,78,0.0,0.0,95,0.00,,,0.00,,2013-04-03 07:33:00,
2013-04-03 03:42:00,62.0,61.0,30.03,ENE,78,0.0,0.0,95,0.00,,,0.00,,2013-04-03 07:42:00,
2013-04-03 03:53:00,63.0,62.0,30.02,ENE,77,0.0,0.0,96,0.00,,,0.00,,2013-04-03 07:53:00,
2013-04-03 04:03:00,63.0,62.0,30.02,ENE,77,0.0,0.0,95,0.00,,,0.00,,2013-04-03 08:03:00,
2013-04-03 04:12:00,63.0,62.0,30.02,ENE,77,0.0,0.0,95,0.00,,,0.00,,2013-04-03 08:12:00,
2013-04-03 04:22:00,62.0,61.0,30.02,ENE,77,0.0,0.0,96,0.00,,,0.00,,2013-04-03 08:22:00,
2013-04-03 04:32:00,63.0,62.0,30.03,East,79,0.0,0.0,96,0.00,,,0.00,,2013-04-03 08:32:00,
2013-04-03 04:43:00,63.0,62.0,30.03,East,79,0.0,0.0,96,0.00,,,0.00,,2013-04-03 08:43:00,
2013-04-03 04:52:00,63.0,62.0,30.02,East,79,0.0,0.0,95,0.00,,,0.00,,2013-04-03 08:52:00,
2013-04-03 05:02:00,63.0,62.0,30.03,East,79,0.0,0.0,95,0.00,,,0.00,,2013-04-03 09:02:00,
2013-04-03 05:12:00,63.0,62.0,30.03,East,79,0.0,0.0,95,0.00,,,0.00,,2013-04-03 09:12:00,
2013-04-03 05:22:00,63.0,61.0,30.03,East,79,0.0,0.0,94,0.00,,,0.00,,2013-04-03 09:22:00,
2013-04-03 05:33:00,63.0,61.0,30.03,East,79,0.0,0.0,94,0.00,,,0.00,,2013-04-03 09:33:00,
2013-04-03 05:43:00,63.0,61.0,30.03,East,79,0.0,0.0,94,0.00,,,0.00,,2013-04-03 09:43:00,
2013-04-03 05:53:00,63.0,62.0,30.02,East,89,0.0,0.0,95,0.00,,,0.00,,2013-04-03 09:53:00,
2013-04-03 06:03:00,63.0,62.0,30.02,East,79,0.0,0.0,95,0.00,,,0.00,,2013-04-03 10:03:00,
2013-04-03 06:12:00,63.0,62.0,30.02,East,79,0.0,0.0,95,0.00,,,0.00,,2013-04-03 10:12:00,
2013-04-03 06:22:00,64.0,63.0,30.02,East,79,0.0,0.0,95,0.00,,,0.00,,2013-04-03 10:22:00,
2013-04-03 06:33:00,64.0,63.0,30.01,East,79,0.0,0.0,95,0.00,,,0.00,,2013-04-03 10:33:00,
2013-04-03 06:43:00,64.0,63.0,30.01,East,79,0.0,0.0,95,0.00,,,0.00,,2013-04-03 10:43:00,
2013-04-03 06:53:00,64.0,63.0,30.02,ENE,75,0.0,0.0,96,0.00,,,0.00,,2013-04-03 10:53:00,
2013-04-03 07:02:00,65.0,64.0,30.02,East,87,0.0,2.0,96,0.00,,,0.00,,2013-04-03 11:02:00,
2013-04-03 07:12:00,65.0,64.0,30.02,East,87,0.0,2.0,96,0.00,,,0.00,,2013-04-03 11:12:00,
2013-04-03 07:23:00,65.0,64.0,30.02,ESE,105,0.0,2.0,96,0.00,,,0.00,,2013-04-03 11:23:00,
2013-04-03 07:32:00,66.0,65.0,30.03,East,84,1.0,2.0,96,0.00,,,0.00,,2013-04-03 11:32:00,
2013-04-03 07:42:00,66.0,65.0,30.03,East,84,1.0,2.0,96,0.00,,,0.00,,2013-04-03 11:42:00,
2013-04-03 07:53:00,66.0,65.0,30.02,NNE,31,0.0,3.0,96,0.00,,,0.00,,2013-04-03 11:53:00,
2013-04-03 08:02:00,66.0,65.0,30.03,East,96,1.0,3.0,96,0.00,,,0.00,,2013-04-03 12:02:00,
2013-04-03 08:22:00,67.0,66.0,30.03,East,96,0.0,2.0,96,0.00,,,0.00,,2013-04-03 12:22:00,
2013-04-03 08:33:00,67.0,66.0,30.04,ENE,77,0.0,2.0,95,0.00,,,0.00,,2013-04-03 12:33:00,
2013-04-03 08:42:00,67.0,66.0,30.04,ENE,77,0.0,2.0,95,0.00,,,0.00,,2013-04-03 12:42:00,
2013-04-03 08:52:00,68.0,67.0,30.04,SE,131,1.0,4.0,95,0.00,,,0.00,,2013-04-03 12:52:00,
2013-04-03 09:02:00,69.0,67.0,30.05,ESE,114,2.0,5.0,93,0.00,,,0.00,,2013-04-03 13:02:00,
2013-04-03 09:12:00,69.0,67.0,30.05,ESE,114,2.0,5.0,93,0.00,,,0.00,,2013-04-03 13:12:00,
2013-04-03 09:22:00,70.0,67.0,30.05,SSW,208,1.0,6.0,91,0.00,,,0.00,,2013-04-03 13:22:00,
2013-04-03 09:32:00,71.0,68.0,30.04,East,83,2.0,6.0,90,0.00,,,0.00,,2013-04-03 13:32:00,
2013-04-03 09:42:00,71.0,68.0,30.04,East,83,2.0,6.0,90,0.00,,,0.00,,2013-04-03 13:42:00,
2013-04-03 09:52:00,72.0,68.0,30.05,East,91,2.0,9.0,88,0.00,,,0.00,,2013-04-03 13:52:00,
2013-04-03 10:02:00,72.0,68.0,30.04,NE,56,3.0,6.0,86,0.00,,,0.00,,2013-04-03 14:02:00,
2013-04-03 10:13:00,72.0,68.0,30.04,NE,56,3.0,6.0,86,0.00,,,0.00,,2013-04-03 14:13:00,
2013-04-03 10:22:00,73.0,68.0,30.04,SE,143,3.0,10.0,85,0.00,,,0.00,,2013-04-03 14:22:00,
2013-04-03 10:32:00,74.0,68.0,30.05,ESE,115,3.0,10.0,83,0.00,,,0.00,,2013-04-03 14:32:00,
2013-04-03 10:43:00,74.0,68.0,30.05,ESE,115,3.0,10.0,83,0.00,,,0.00,,2013-04-03 14:43:00,
2013-04-03 10:52:00,75.0,68.0,30.04,SW,218,3.0,8.0,80,0.00,,,0.00,,2013-04-03 14:52:00,
2013-04-03 11:02:00,76.0,69.0,30.05,SW,224,4.0,11.0,78,0.00,,,0.00,,2013-04-03 15:02:00,
2013-04-03 11:12:00,76.0,69.0,30.05,SW,224,4.0,11.0,78,0.00,,,0.00,,2013-04-03 15:12:00,
2013-04-03 11:23:00,77.0,69.0,30.04,SW,232,4.0,10.0,76,0.00,,,0.00,,2013-04-03 15:23:00,
2013-04-03 11:33:00,77.0,69.0,30.03,East,83,4.0,8.0,76,0.00,,,0.00,,2013-04-03 15:33:00,
2013-04-03 11:43:00,77.0,69.0,30.03,East,83,4.0,8.0,76,0.00,,,0.00,,2013-04-03 15:43:00,
2013-04-03 11:53:00,77.0,69.0,30.02,SE,125,1.0,11.0,77,0.00,,,0.00,,2013-04-03 15:53:00,
2013-04-03 12:03:00,78.0,69.0,30.02,SSW,201,3.0,7.0,73,0.00,,,0.00,,2013-04-03 16:03:00,
2013-04-03 12:13:00,78.0,69.0,30.02,SSW,201,3.0,7.0,73,0.00,,,0.00,,2013-04-03 16:13:00,
2013-04-03 12:25:00,80.0,69.0,30.03,South,172,2.0,11.0,70,0.00,,,0.00,,2013-04-03 16:25:00,
2013-04-03 12:33:00,81.0,69.0,30.03,WNW,283,1.0,11.0,67,0.00,,,0.00,,2013-04-03 16:33:00,
2013-04-03 12:53:00,81.0,69.0,30.02,SE,134,3.0,9.0,67,0.00,,,0.00,,2013-04-03 16:53:00,
2013-04-03 13:03:00,82.0,69.0,30.02,WSW,257,3.0,8.0,64,0.00,,,0.00,,2013-04-03 17:03:00,
2013-04-03 13:14:00,82.0,69.0,30.02,WSW,257,3.0,8.0,64,0.00,,,0.00,,2013-04-03 17:14:00,
2013-04-03 13:23:00,82.0,69.0,30.01,WSW,238,3.0,10.0,64,0.00,,,0.00,,2013-04-03 17:23:00,
2013-04-03 13:33:00,83.0,70.0,30.01,West,278,2.0,8.0,64,0.00,,,0.00,,2013-04-03 17:33:00,
2013-04-03 13:46:00,83.0,70.0,30.01,West,278,2.0,8.0,64,0.00,,,0.00,,2013-04-03 17:46:00,
2013-04-03 13:54:00,82.0,69.0,30.02,SW,214,4.0,10.0,64,0.00,,,0.00,,2013-04-03 17:54:00,
2013-04-03 14:02:00,81.0,68.0,30.01,West,271,3.0,9.0,65,0.00,,,0.00,,2013-04-03 18:02:00,
2013-04-03 14:13:00,81.0,68.0,30.01,West,271,3.0,9.0,65,0.00,,,0.00,,2013-04-03 18:13:00,
2013-04-03 14:23:00,81.0,68.0,30.01,WSW,257,3.0,8.0,64,0.00,,,0.00,,2013-04-03 18:23:00,
2013-04-03 14:33:00,81.0,66.0,30.02,WSW,252,3.0,9.0,61,0.00,,,0.00,,2013-04-03 18:33:00,
2013-04-03 14:43:00,81.0,66.0,30.02,WSW,252,3.0,9.0,61,0.00,,,0.00,,2013-04-03 18:43:00,
2013-04-03 14:52:00,80.0,65.0,30.02,SW,228,4.0,10.0,61,0.00,,,0.00,,2013-04-03 18:52:00,
2013-04-03 15:03:00,79.0,67.0,30.02,SW,214,4.0,11.0,66,0.00,,,0.00,,2013-04-03 19:03:00,
2013-04-03 15:12:00,79.0,67.0,30.02,SW,214,4.0,11.0,66,0.00,,,0.00,,2013-04-03 19:12:00,
2013-04-03 15:22:00,79.0,68.0,30.01,WSW,243,3.0,10.0,68,0.00,,,0.00,,2013-04-03 19:22:00,
2013-04-03 15:32:00,78.0,68.0,30.00,South,169,2.0,7.0,71,0.00,,,0.00,,2013-04-03 19:32:00,
2013-04-03 15:42:00,78.0,68.0,30.00,South,169,2.0,7.0,71,0.00,,,0.00,,2013-04-03 19:42:00,
2013-04-03 15:52:00,78.0,67.0,29.99,SW,214,3.0,9.0,69,0.00,,,0.00,,2013-04-03 19:52:00,
2013-04-03 16:02:00,79.0,68.0,29.99,SSW,193,3.0,8.0,68,0.00,,,0.00,,2013-04-03 20:02:00,
2013-04-03 16:12:00,79.0,68.0,29.99,SSW,193,3.0,8.0,68,0.00,,,0.00,,2013-04-03 20:12:00,
2013-04-03 16:23:00,78.0,67.0,29.99,South,183,5.0,12.0,70,0.00,,,0.00,,2013-04-03 20:23:00,
2013-04-03 16:33:00,77.0,68.0,29.99,SSE,147,3.0,8.0,74,0.00,,,0.00,,2013-04-03 20:33:00,
2013-04-03 16:42:00,77.0,68.0,29.99,SSE,147,3.0,8.0,74,0.00,,,0.00,,2013-04-03 20:42:00,
2013-04-03 16:53:00,76.0,68.0,29.98,NW,308,3.0,8.0,77,0.00,,,0.00,,2013-04-03 20:53:00,
2013-04-03 17:02:00,76.0,68.0,29.98,South,179,3.0,10.0,76,0.00,,,0.00,,2013-04-03 21:02:00,
2013-04-03 17:12:00,76.0,68.0,29.98,South,179,3.0,10.0,76,0.00,,,0.00,,2013-04-03 21:12:00,
2013-04-03 17:22:00,76.0,68.0,29.98,WSW,255,3.0,11.0,76,0.00,,,0.00,,2013-04-03 21:22:00,
2013-04-03 17:33:00,75.0,68.0,29.98,WSW,246,2.0,14.0,78,0.00,,,0.00,,2013-04-03 21:33:00,
2013-04-03 17:42:00,75.0,68.0,29.98,WSW,246,2.0,14.0,78,0.00,,,0.00,,2013-04-03 21:42:00,
2013-04-03 17:52:00,75.0,68.0,29.98,SE,128,3.0,6.0,79,0.00,,,0.00,,2013-04-03 21:52:00,
2013-04-03 18:02:00,75.0,68.0,29.98,SSW,197,3.0,10.0,80,0.00,,,0.00,,2013-04-03 22:02:00,
2013-04-03 18:13:00,75.0,68.0,29.98,SSW,197,3.0,10.0,80,0.00,,,0.00,,2013-04-03 22:13:00,
2013-04-03 18:22:00,75.0,68.0,29.96,SE,142,2.0,9.0,79,0.00,,,0.00,,2013-04-03 22:22:00,
2013-04-03 18:33:00,75.0,68.0,29.96,WNW,296,2.0,11.0,80,0.00,,,0.00,,2013-04-03 22:33:00,
2013-04-03 18:42:00,75.0,68.0,29.96,WNW,296,2.0,11.0,80,0.00,,,0.00,,2013-04-03 22:42:00,
2013-04-03 18:52:00,75.0,68.0,29.98,SE,129,3.0,10.0,80,0.00,,,0.00,,2013-04-03 22:52:00,
2013-04-03 19:02:00,74.0,68.0,29.98,SW,218,2.0,9.0,83,0.00,,,0.00,,2013-04-03 23:02:00,
2013-04-03 19:12:00,74.0,68.0,29.98,SW,218,2.0,9.0,83,0.00,,,0.00,,2013-04-03 23:12:00,
2013-04-03 19:22:00,74.0,69.0,29.97,SW,218,2.0,8.0,84,0.00,,,0.00,,2013-04-03 23:22:00,
2013-04-03 19:32:00,73.0,68.0,29.98,SE,138,1.0,10.0,85,0.00,,,0.00,,2013-04-03 23:32:00,
2013-04-03 19:43:00,73.0,68.0,29.98,SE,138,1.0,10.0,85,0.00,,,0.00,,2013-04-03 23:43:00,
2013-04-03 19:54:00,73.0,68.0,29.98,SSW,210,1.0,10.0,85,0.00,,,0.00,,2013-04-03 23:54:00,
2013-04-03 20:03:00,73.0,68.0,29.98,SSE,163,1.0,9.0,85,0.00,,,0.00,,2013-04-04 00:03:00,
2013-04-03 20:12:00,73.0,68.0,29.98,SSE,163,1.0,9.0,85,0.00,,,0.00,,2013-04-04 00:12:00,
2013-04-03 20:22:00,73.0,69.0,29.98,ESE,118,2.0,9.0,86,0.00,,,0.00,,2013-04-04 00:22:00,
2013-04-03 20:32:00,73.0,69.0,29.99,WSW,240,1.0,6.0,86,0.00,,,0.00,,2013-04-04 00:32:00,
2013-04-03 20:43:00,73.0,69.0,29.99,WSW,240,1.0,6.0,86,0.00,,,0.00,,2013-04-04 00:43:00,
2013-04-03 20:52:00,73.0,69.0,30.02,SW,221,2.0,13.0,88,0.01,,,0.01,,2013-04-04 00:52:00,
2013-04-03 21:02:00,71.0,68.0,30.01,WSW,256,1.0,5.0,91,0.02,,,0.02,,2013-04-04 01:02:00,
2013-04-03 21:12:00,71.0,68.0,30.01,WSW,256,1.0,5.0,91,0.02,,,0.02,,2013-04-04 01:12:00,
2013-04-03 21:22:00,71.0,69.0,30.02,West,259,3.0,9.0,93,0.02,,,0.02,,2013-04-04 01:22:00,
2013-04-03 21:32:00,71.0,69.0,30.01,East,98,1.0,7.0,93,0.02,,,0.02,,2013-04-04 01:32:00,
2013-04-03 21:43:00,71.0,69.0,30.01,East,98,1.0,7.0,93,0.02,,,0.02,,2013-04-04 01:43:00,
2013-04-03 21:53:00,70.0,68.0,30.01,ESE,118,0.0,1.0,92,0.01,,,0.02,,2013-04-04 01:53:00,
2013-04-03 22:02:00,70.0,68.0,30.03,WSW,257,1.0,4.0,92,0.01,,,0.03,,2013-04-04 02:02:00,
2013-04-03 22:12:00,70.0,68.0,30.03,WSW,257,1.0,4.0,92,0.01,,,0.03,,2013-04-04 02:12:00,
2013-04-03 22:22:00,71.0,69.0,30.03,SW,217,1.0,6.0,93,0.01,,,0.03,,2013-04-04 02:22:00,
2013-04-03 22:32:00,71.0,69.0,30.02,SSW,211,0.0,3.0,94,0.02,,,0.04,,2013-04-04 02:32:00,
2013-04-03 22:42:00,71.0,69.0,30.02,SSW,211,0.0,3.0,94,0.02,,,0.04,,2013-04-04 02:42:00,
2013-04-03 22:53:00,71.0,69.0,30.02,SSW,211,0.0,3.0,94,0.02,,,0.04,,2013-04-04 02:53:00,
2013-04-03 23:02:00,71.0,69.0,30.03,South,191,1.0,5.0,94,0.01,,,0.04,,2013-04-04 03:02:00,
2013-04-03 23:12:00,71.0,69.0,30.03,South,191,1.0,5.0,94,0.01,,,0.04,,2013-04-04 03:12:00,
2013-04-03 23:22:00,70.0,68.0,30.03,East,81,0.0,5.0,94,0.03,,,0.06,,2013-04-04 03:22:00,
2013-04-03 23:33:00,70.0,68.0,30.02,East,91,1.0,3.0,94,0.03,,,0.07,,2013-04-04 03:33:00,
2013-04-03 23:45:00,70.0,68.0,30.02,East,91,1.0,3.0,94,0.03,,,0.07,,2013-04-04 03:45:00,
2013-04-03 23:53:00,70.0,68.0,30.01,NNW,335,1.0,7.0,94,0.05,,,0.09,,2013-04-04 03:53:00,